Hourly Data Report for August 07, 2022

ST-JOVITE
QUEBEC
Current Station Operator: ECCC - MSC

46°04'49.000" N
74°33'21.000" W
238.50 m
703GDKB
71376
WJT

Download Data

Hourly Data (August 2022)
Hourly Data Report for August 7, 2022
TIME
LST
Temp Definition
°C
Dew Point Definition
°C
Rel Hum Definition
%
Precip. Amount Definition
mm

Wind Dir Definition
10's deg

Wind Spd Definition
km/h
Visibility Definition
km
Stn Press Definition
kPa
Hmdx Definition


Wind Chill Definition


Weather Definition


00:00 22.2 21.7 97 0.0   0   98.86 31   LegendNANA
01:00 21.8 21.5 99 0.0   0   98.84 31   LegendNANA
02:00 21.6 21.6 100 0.0   0   98.83 31   LegendNANA
03:00 20.9 20.9 100 0.0 0 1   98.80 29   LegendNANA
04:00 20.1 20.1 100 0.0 9 2   98.83 28   LegendNANA
05:00 19.8 LegendMM LegendMM 0.0 7 1   98.83     LegendNANA
06:00 20.1 LegendMM LegendMM 0.0 0 1   98.86     LegendNANA
07:00 22.8 22.5 98 0.0 20 3   98.86 33   LegendNANA
08:00 24.3 22.9 92 0.0 23 4   98.81 34   LegendNANA
09:00 25.8 23.8 89 0.0 20 3   98.79 37   LegendNANA
10:00 28.1 23.9 78 0.0 26 5   98.73 39   LegendNANA
11:00 27.5 24.3 83 0.0 25 8   98.68 39   LegendNANA
12:00 28.1 24.3 80 0.0 23 8   98.61 40   LegendNANA
13:00 29.4 24.1 74 0.0 26 5   98.56 41   LegendNANA
14:00 27.7 21.9 71 0.0 33 4   98.61 37   LegendNANA
15:00 27.2 23.0 78 0.0 24 3   98.63 37   LegendNANA
16:00 24.9 20.7 77 0.0 34 2   98.66 33   LegendNANA
17:00 23.8 21.1 85 0.0 33 2   98.71 32   LegendNANA
18:00 22.6 20.2 87 0.0 1 2   98.76 30   LegendNANA
19:00 21.5 19.6 89 0.0 5 2   98.78 29   LegendNANA
20:00 20.3 20.3 100 0.0 7 1   98.83 28   LegendNANA
21:00 19.5 LegendMM LegendMM 3.0 7 2   98.81     LegendNANA
22:00 19.0 LegendMM LegendMM 2.0   0   98.73     LegendNANA
23:00 18.3 LegendMM LegendMM 8.0 4 1   98.75     LegendNANA

Notes on Data Quality.

Legend

  • E = Estimated
  • M = Missing
  • NA = Not Available*
  • [empty] = Indicates an unobserved value
Date modified: